Weather History for Port Lavaca, TX

Change the Weather History Date:

Monday, February 17, 2014

  Actual Average (KVCT) Record (KVCT)
Temperature  
Mean Temperature 70 °F 58 °F  
Max Temperature 79 °F 68 °F 86 °F (1986)
Min Temperature 61 °F 47 °F 20 °F (1903)
Degree Days  
Heating Degree Days 0 8  
Month to date heating degree days 161  
Since 1 July heating degree days 1013  
Cooling Degree Days 5 1  
Month to date cooling degree days 17  
Year to date cooling degree days 31  
Growing Degree Days 20 (Base 50)    
Moisture  
Dew Point 63 °F    
Average Humidity 83    
Maximum Humidity 99    
Minimum Humidity 60    
Precipitation  
Precipitation 0.00 in 0.08 in 1.05 in (1973)
Month to date precipitation 1.26  
Year to date precipitation 3.78  
Snow  
Snow 0.00 in - - ()
Month to date snowfall  
Since 1 July snowfall  
Snow Depth -    
Sea Level Pressure  
Sea Level Pressure 30.03 in    
Wind  
Wind Speed 12 mph (South)    
Max Wind Speed 20 mph    
Max Gust Speed 25 mph    
Visibility 7 miles    
Events Fog    
T = Trace of Precipitation, MM = Missing Value Source: NWS Daily Summary

Daily Weather History Graph

Daily Weather History Graph

Search for Another Location

Airport:

Trip Planner

Search our weather history database for the weather conditions in past years. The results will help you decide how hot, cold, wet, or windy it might be!

Date:

Astronomy

Feb. 17, 2014 Rise Set
Actual Time 7:03 AM CST 6:18 PM CST
Civil Twilight 6:39 AM CST 6:42 PM CST
Nautical Twilight 6:11 AM CST 7:10 PM CST
Astronomical Twilight 5:44 AM CST 7:37 PM CST
Moon 8:55 PM CST (2/17) 8:20 AM CST (2/17)
Length of Visible Light 12h 03m
Length of Day
11h 15m
Waning Gibbous, 93% of the Moon is Illuminated
Feb 17
Waning Gibbous
Feb 22
Last Quarter
Mar 1
New
Mar 8
First Quarter
Mar 16
Full

Hourly Weather History & Observations

Time (CST) Temp. Dew Point Humidity Pressure Visibility Wind Dir Wind Speed Gust Speed Precip Events Conditions
12:15 AM 67.1 °F 64.4 °F 91% 30.01 in 7.0 mi South 10.4 mph 16.1 mph N/A   Overcast
12:35 AM 67.1 °F 64.4 °F 91% 30.00 in 7.0 mi South 11.5 mph - N/A   Overcast
12:55 AM 67.3 °F 64.4 °F 90% 30.00 in 7.0 mi South 10.4 mph 17.3 mph N/A   Overcast
1:15 AM 67.3 °F 64.6 °F 91% 30.00 in 7.0 mi South 12.7 mph - N/A   Overcast
1:35 AM 67.3 °F 64.6 °F 91% 30.00 in 7.0 mi South 12.7 mph - N/A   Overcast
1:55 AM 67.6 °F 64.4 °F 89% 30.00 in 7.0 mi South 13.8 mph - N/A   Overcast
2:15 AM 68.0 °F 64.4 °F 88% 29.99 in 10.0 mi South 13.8 mph - N/A   Overcast
2:35 AM 68.0 °F 64.4 °F 88% 29.99 in 7.0 mi South 12.7 mph - N/A   Overcast
2:55 AM 68.0 °F 63.9 °F 87% 29.98 in 10.0 mi South 13.8 mph 20.7 mph N/A   Overcast
3:15 AM 67.8 °F 63.5 °F 86% 29.98 in 10.0 mi South 12.7 mph 20.7 mph N/A   Overcast
3:35 AM 67.1 °F 63.7 °F 89% 29.98 in 7.0 mi South 11.5 mph 19.6 mph N/A   Mostly Cloudy
3:55 AM 66.6 °F 63.5 °F 90% 29.98 in 7.0 mi South 11.5 mph - N/A   Mostly Cloudy
4:15 AM 66.4 °F 62.8 °F 88% 29.97 in 7.0 mi South 13.8 mph 18.4 mph N/A   Mostly Cloudy
4:35 AM 66.2 °F 62.6 °F 88% 29.97 in 10.0 mi South 11.5 mph - N/A   Mostly Cloudy
4:55 AM 66.2 °F 62.6 °F 88% 29.98 in 7.0 mi South 12.7 mph - N/A   Overcast
5:15 AM 66.4 °F 61.9 °F 85% 29.98 in 10.0 mi SSW 11.5 mph - N/A   Overcast
5:35 AM 66.2 °F 61.9 °F 86% 29.98 in 10.0 mi South 16.1 mph - N/A   Overcast
5:55 AM 65.5 °F 61.7 °F 88% 29.98 in 10.0 mi South 12.7 mph - N/A   Overcast
6:15 AM 65.3 °F 61.9 °F 89% 29.98 in 7.0 mi SSW 12.7 mph - N/A   Overcast
6:35 AM 64.9 °F 61.7 °F 89% 29.99 in 7.0 mi SSW 11.5 mph 18.4 mph N/A   Mostly Cloudy
6:55 AM 64.4 °F 61.5 °F 90% 29.99 in 7.0 mi SSW 10.4 mph - N/A   Mostly Cloudy
7:15 AM 64.4 °F 61.7 °F 91% 30.00 in 7.0 mi SSW 9.2 mph - N/A   Scattered Clouds
7:35 AM 64.0 °F 61.3 °F 91% 30.00 in 5.0 mi SSW 9.2 mph - N/A   Mostly Cloudy
7:55 AM 64.9 °F 61.9 °F 90% 30.00 in 7.0 mi SSW 11.5 mph - N/A   Mostly Cloudy
8:15 AM 65.7 °F 62.4 °F 89% 30.00 in 7.0 mi SSW 12.7 mph - N/A   Scattered Clouds
8:35 AM 67.8 °F 63.1 °F 85% 30.02 in 10.0 mi SW 10.4 mph - N/A   Clear
8:55 AM 69.4 °F 63.3 °F 81% 30.03 in 10.0 mi SSW 12.7 mph 20.7 mph N/A   Clear
9:15 AM 71.8 °F 63.3 °F 75% 30.04 in 10.0 mi SW 16.1 mph 20.7 mph N/A   Clear
9:35 AM 72.0 °F 62.6 °F 72% 30.05 in 10.0 mi SSW 16.1 mph 23.0 mph N/A   Clear
9:55 AM 74.5 °F 63.1 °F 68% 30.05 in 10.0 mi SSW 13.8 mph 21.9 mph N/A   Clear
10:15 AM 75.2 °F 63.1 °F 66% 30.06 in 10.0 mi South 19.6 mph 25.3 mph N/A   Clear
10:35 AM 75.2 °F 62.8 °F 65% 30.06 in 10.0 mi SSW 17.3 mph 25.3 mph N/A   Scattered Clouds
10:55 AM 75.9 °F 63.7 °F 66% 30.06 in 10.0 mi SSW 15.0 mph 24.2 mph N/A   Mostly Cloudy
11:15 AM 74.8 °F 63.5 °F 68% 30.06 in 10.0 mi SSW 17.3 mph 25.3 mph N/A   Mostly Cloudy
11:35 AM 75.7 °F 63.9 °F 66% 30.06 in 10.0 mi South 17.3 mph - N/A   Mostly Cloudy
11:55 AM 76.3 °F 64.2 °F 66% 30.06 in 10.0 mi SSW 16.1 mph - N/A   Overcast
12:15 PM 76.6 °F 63.5 °F 64% 30.06 in 10.0 mi SSW 16.1 mph 23.0 mph N/A   Mostly Cloudy
12:35 PM 77.7 °F 64.6 °F 64% 30.04 in 10.0 mi SSW 12.7 mph 24.2 mph N/A   Mostly Cloudy
12:55 PM 77.5 °F 63.7 °F 62% 30.06 in 10.0 mi WSW 11.5 mph - N/A   Overcast
1:15 PM 77.0 °F 63.7 °F 63% 30.05 in 10.0 mi SSW 10.4 mph 18.4 mph N/A   Overcast
1:35 PM 78.6 °F 64.0 °F 61% 30.02 in 10.0 mi South 16.1 mph 23.0 mph N/A   Mostly Cloudy
1:55 PM 77.7 °F 63.7 °F 62% 30.02 in 10.0 mi South 11.5 mph 21.9 mph N/A   Mostly Cloudy
2:15 PM 79.3 °F 64.4 °F 60% 30.02 in 10.0 mi South 13.8 mph 21.9 mph N/A   Mostly Cloudy
2:35 PM 78.6 °F 64.6 °F 62% 30.02 in 10.0 mi South 13.8 mph 23.0 mph N/A   Scattered Clouds
2:55 PM 76.5 °F 64.4 °F 66% 30.02 in 10.0 mi SSW 15.0 mph 19.6 mph N/A   Overcast
3:15 PM 77.7 °F 64.6 °F 64% 30.01 in 10.0 mi South 13.8 mph 19.6 mph N/A   Mostly Cloudy
3:35 PM 77.0 °F 64.2 °F 65% 30.02 in 10.0 mi SSW 12.7 mph 17.3 mph N/A   Mostly Cloudy
3:55 PM 78.3 °F 65.3 °F 64% 30.02 in 10.0 mi SSE 13.8 mph 19.6 mph N/A   Mostly Cloudy
4:15 PM 75.0 °F 65.5 °F 72% 30.02 in 10.0 mi ESE 15.0 mph 18.4 mph N/A   Overcast
4:35 PM 70.7 °F 65.5 °F 83% 30.02 in 10.0 mi ESE 12.7 mph - N/A   Overcast
4:55 PM 70.9 °F 65.8 °F 84% 30.03 in 10.0 mi ESE 16.1 mph - N/A   Scattered Clouds
5:15 PM 70.2 °F 65.7 °F 86% 30.03 in 10.0 mi ESE 15.0 mph - N/A   Clear
5:35 PM 70.3 °F 66.2 °F 87% 30.04 in 7.0 mi ESE 15.0 mph - N/A   Clear
5:55 PM 67.6 °F 64.8 °F 90% 30.04 in 7.0 mi ESE 15.0 mph - N/A   Clear
6:15 PM 66.2 °F 64.2 °F 93% 30.05 in 7.0 mi ESE 13.8 mph - N/A   Scattered Clouds
6:35 PM 64.8 °F 63.5 °F 96% 30.05 in 5.0 mi ESE 12.7 mph - N/A   Overcast
6:55 PM 64.4 °F 63.1 °F 96% 30.06 in 5.0 mi ESE 11.5 mph - N/A   Overcast
7:15 PM 64.0 °F 63.0 °F 96% 30.06 in 1.2 mi ESE 10.4 mph - N/A   Overcast
7:35 PM 63.3 °F 62.4 °F 97% 30.07 in 1.0 mi ESE 11.5 mph - N/A   Overcast
7:55 PM 62.2 °F 61.3 °F 97% 30.08 in 0.5 mi ESE 9.2 mph - N/A Fog Fog
8:15 PM 62.1 °F 61.3 °F 97% 30.08 in 0.8 mi ESE 6.9 mph - N/A   Overcast
8:35 PM 61.9 °F 61.2 °F 97% 30.09 in 0.5 mi ESE 6.9 mph - N/A Fog Fog
8:55 PM 61.9 °F 61.2 °F 97% 30.09 in 0.5 mi ESE 4.6 mph - N/A Fog Fog
9:15 PM 61.9 °F 61.2 °F 97% 30.10 in 0.5 mi ESE 3.5 mph - N/A Fog Fog
9:35 PM 61.9 °F 61.2 °F 97% 30.10 in 0.5 mi SE 4.6 mph - N/A Fog Fog
9:55 PM 62.8 °F 62.1 °F 97% 30.11 in 0.2 mi SE 4.6 mph - N/A Fog Fog
10:15 PM 63.5 °F 62.8 °F 97% 30.11 in 0.2 mi ESE 4.6 mph - N/A Fog Fog
10:35 PM 63.7 °F 63.0 °F 97% 30.11 in 0.5 mi ESE 4.6 mph - N/A Fog Fog
10:55 PM 63.9 °F 63.5 °F 99% 30.11 in 0.8 mi ESE 3.5 mph - N/A   Overcast
11:15 PM 65.5 °F 64.9 °F 98% 30.10 in 4.0 mi SSE 8.1 mph - N/A   Overcast
11:35 PM 65.7 °F 65.3 °F 99% 30.10 in 7.0 mi SSE 9.2 mph - N/A   Overcast
11:55 PM 65.8 °F 65.1 °F 98% 30.10 in 7.0 mi SSE 6.9 mph - N/A   Overcast